Vertical_Velocity
-1 1 -1 0 -1 3 -1 9 -5 10 20 -3 -7 -9 1 -1 -1 -3 -1 1 -6 0 -5 2 3 4 -3 -4 0 -0 -3 -2 -0 -1 -2 -2 2 1 -1 1 -1 0 -0
-1 -2 0 -0 3 2 2 3 7 0 1 13 5 -13 -1 -2 6 -2 -0 -0 -4 -1 -1 -1 3 0 0 1 -3 3 -1 -4 -2 -1 -2 -1 -2 -1 -1 -0 1 -1 1
-0 -1 -2 -1 5 0 2 2 3 4 1 4 7 8 -11 6 3 -2 2 -1 -0 -2 -5 -4 -3 6 2 1 -2 2 -1 -5 -3 -2 -2 -0 -1 -3 -1 -0 -1 -0 1
-1 -2 -3 -2 0 1 2 2 4 5 8 3 0 -2 11 -28 22 -2 -1 -2 2 2 -12 3 -3 1 1 3 3 3 -1 2 -5 -4 -2 -1 1 -1 1 -1 0 -1 1
-4 -3 -2 -1 -4 -0 -0 3 4 7 4 1 4 5 2 20 6 0 -5 -4 -1 -1 -1 -4 0 -2 -2 0 1 4 -3 -0 0 -2 -2 -1 -1 -3 -2 -1 -0 -1 0
0 -4 -3 -6 -2 -3 1 -0 -3 9 3 24 -3 6 0 -3 -30 4 2 1 -4 -2 3 -7 1 -4 -1 -1 2 2 0 -2 -1 -1 1 -2 -2 -2 0 -3 -2 -1 -1
-2 -4 -1 -0 -2 -0 -1 -0 -2 -3 4 3 13 4 10 12 -5 -20 -6 8 -0 -3 1 -3 -3 1 -0 2 -3 2 7 -2 -4 2 -3 -0 -1 -3 -2 -0 -2 -2 -1
-9 -8 -4 -5 2 -2 -2 -1 -2 -5 -10 15 50 1 7 24 3 14 8 -14 4 -4 2 1 -7 0 2 2 -4 2 3 -1 -1 -4 0 0 -2 -1 -4 -1 -2 -1 -2
-5 -3 -5 -5 -6 0 -4 -0 1 -2 -8 -6 -14 37 1 -2 0 2 12 -24 -2 -3 0 5 -6 -1 0 1 -5 1 7 0 0 -3 1 -2 -0 -1 1 1 1 1 -3
-5 -5 -5 -3 -4 -1 -1 0 2 3 -4 -17 19 -4 26 -17 -23 -2 13 4 -8 -0 -1 2 -1 -5 1 0 -1 -5 -3 2 0 -5 6 1 -4 -0 -0 -2 2 -2 1
1 -6 -3 -3 -5 -2 -3 -1 -2 -1 2 -12 4 5 60 18 1 -3 -3 10 -1 -7 -0 3 -4 0 2 0 4 -3 -1 -3 3 -4 3 3 -0 -2 1 1 0 -3 -4
-2 1 -1 -2 -5 -7 -5 -3 0 -3 7 -10 1 -2 -9 37 -11 -12 3 4 7 -8 -9 0 4 -2 -3 2 -1 -4 -2 1 2 2 -4 -1 0 9 -0 -1 -2 -1 1
2 2 4 -0 -2 -3 -3 -4 -4 0 -1 -11 -8 -15 5 2 14 6 -6 -1 -12 9 -7 -3 1 -6 -1 0 -1 0 -7 1 -3 1 -3 -2 -3 -0 1 -2 2 0 -1
-7 -3 -3 -2 -1 -2 -2 -1 -7 4 -5 -2 -3 -9 7 -1 85 -4 -8 -13 9 9 -3 -14 3 0 -4 -4 1 2 -7 -1 2 1 4 -3 0 -3 -0 -1 -0 -3 2
-6 -8 -3 -6 -1 -0 -2 -0 -8 -2 -3 5 -10 -1 -17 -21 59 1 -1 -6 -15 -10 -4 -5 -6 -1 5 -3 0 0 -3 -5 2 -3 -2 3 -2 1 -2 -3 3 -2 1
-3 -0 1 -0 -2 -0 2 1 -3 -2 -5 2 2 12 10 31 -16 22 8 -4 -8 0 -11 1 -13 -10 -6 -8 -5 -2 0 -3 -2 5 -2 -4 4 -0 2 -4 2 2 0
0 -7 -7 -6 -3 -1 0 -1 -2 -0 -2 5 -9 -4 -17 -6 -23 53 7 -1 -1 -2 -7 8 4 6 6 -0 -2 2 -3 -1 -1 -1 -2 -1 3 -5 1 -4 -1 -1 -2
-4 -5 -1 -2 -2 0 -0 -1 -0 -0 -3 -4 7 -5 -14 -11 -0 68 7 -7 1 8 -9 -3 -9 -5 -4 -3 -1 -3 -7 -3 -1 -2 -2 -3 1 0 -2 -3 -4 -0 -2
0 2 2 0 -2 -3 0 0 -1 -2 1 -6 -4 12 -12 17 -16 79 -2 2 -4 3 0 -6 -6 -3 4 6 1 6 -2 3 3 6 3 -2 -3 -5 0 -2 -2 -1 -2
2 1 1 1 6 5 -1 -2 -2 -3 -1 -1 -1 -16 -21 -13 -14 13 4 -9 5 2 -1 1 5 -6 -0 -9 2 0 -0 -2 1 2 5 3 -3 0 -2 4 -2 -4 -1
4 1 4 6 5 10 7 3 1 -3 -1 5 4 16 -15 -15 82 -13 -10 -3 5 -5 1 2 3 3 3 4 -5 -18 5 7 -0 -0 -0 2 3 -4 -1 1 1 -0 -3
2 0 3 5 -2 6 17 17 13 -0 -5 -5 18 11 -5 -14 15 -7 -2 -3 -11 -19 -4 -4 -7 -4 -8 -6 -4 -9 -2 4 1 4 3 -1 -0 -5 -4 -2 -5 -3 0
-5 0 3 -2 -5 -0 5 -5 -10 3 -6 -7 -22 -22 -23 10 57 1 4 1 4 7 -3 -17 -16 -13 -6 -14 -9 -2 -3 2 -8 -7 8 -5 -6 -8 -2 -1 -1 2 1
-2 -0 -4 3 -11 5 22 14 7 9 28 14 -15 -10 21 33 1 -12 6 2 3 1 -3 -8 1 -1 4 -4 -8 -18 -19 -12 19 8 6 -9 5 -4 2 -1 -5 -1 2
1 3 -0 9 -15 7 35 20 10 -3 -27 -40 -11 14 46 -7 -17 6 -2 4 -0 2 7 13 -0 2 -0 5 5 10 2 2 3 -1 -3 2 -4 0 -2 -4 0 -4 2
2 4 2 -0 -6 14 32 6 -10 -5 31 13 22 27 -2 18 -1 9 4 1 -2 -7 -5 0 22 12 6 -1 12 4 4 -5 1 17 -10 -4 3 4 2 -6 -4 -2 -0
Height
1503 1504 1509 1511 1514 1518 1521 1523 1526 1528 1526 1529 1534 1541 1543 1546 1548 1547 1547 1547 1549 1550 1551 1555 1555 1555 1555 1556 1558 1558 1560 1561 1561 1561 1562 1564 1566 1566 1567 1567 1567 1567 1567
1497 1499 1502 1505 1509 1512 1515 1518 1520 1525 1528 1528 1530 1533 1542 1543 1545 1545 1545 1545 1546 1548 1549 1553 1554 1555 1554 1555 1557 1558 1559 1561 1561 1562 1562 1564 1566 1567 1568 1568 1569 1569 1570
1492 1493 1495 1498 1502 1505 1508 1511 1516 1518 1523 1526 1528 1529 1534 1541 1540 1542 1543 1544 1544 1545 1549 1549 1553 1554 1554 1554 1555 1558 1559 1560 1561 1562 1562 1564 1566 1567 1569 1569 1570 1571 1571
1488 1489 1490 1493 1496 1499 1502 1505 1509 1514 1517 1519 1522 1526 1530 1533 1539 1539 1541 1541 1542 1542 1545 1548 1549 1552 1553 1553 1554 1556 1557 1558 1559 1561 1561 1563 1565 1567 1568 1570 1571 1572 1573
1485 1486 1486 1487 1491 1493 1496 1497 1501 1506 1508 1513 1517 1521 1526 1525 1538 1536 1537 1538 1540 1540 1541 1545 1546 1549 1551 1552 1553 1555 1555 1557 1557 1558 1559 1561 1564 1564 1567 1569 1571 1573 1574
1481 1480 1481 1484 1486 1487 1490 1492 1493 1497 1501 1505 1511 1515 1520 1523 1524 1536 1536 1534 1537 1537 1537 1540 1542 1545 1548 1550 1552 1553 1554 1557 1557 1557 1557 1559 1562 1563 1565 1568 1570 1573 1575
1477 1478 1478 1477 1481 1480 1483 1485 1487 1490 1491 1498 1502 1508 1513 1515 1519 1525 1531 1535 1532 1534 1535 1536 1541 1544 1546 1548 1549 1551 1553 1554 1556 1556 1557 1559 1561 1563 1565 1566 1569 1572 1574
1472 1474 1475 1476 1474 1474 1476 1479 1481 1483 1484 1489 1494 1500 1504 1509 1511 1517 1521 1526 1531 1531 1533 1533 1538 1541 1543 1545 1546 1549 1551 1553 1554 1557 1557 1560 1561 1563 1565 1566 1568 1571 1573
1468 1469 1470 1470 1471 1469 1469 1473 1476 1477 1478 1481 1485 1481 1489 1492 1499 1508 1511 1513 1524 1526 1530 1531 1533 1538 1540 1542 1543 1547 1549 1550 1553 1555 1557 1558 1561 1563 1565 1567 1568 1571 1573
1461 1462 1463 1464 1465 1465 1463 1465 1469 1469 1472 1470 1474 1473 1473 1477 1484 1497 1503 1500 1516 1520 1524 1527 1528 1533 1537 1538 1540 1543 1546 1548 1549 1552 1555 1557 1559 1562 1564 1567 1568 1570 1572
1453 1454 1455 1456 1456 1457 1457 1456 1458 1461 1461 1465 1465 1468 1470 1470 1478 1475 1489 1495 1503 1513 1518 1520 1522 1527 1532 1533 1536 1539 1543 1546 1547 1549 1553 1555 1557 1560 1563 1565 1567 1567 1570
1445 1446 1446 1445 1446 1446 1447 1449 1447 1450 1452 1454 1456 1457 1458 1460 1457 1467 1475 1488 1483 1494 1509 1515 1517 1520 1525 1528 1531 1534 1539 1541 1544 1546 1549 1553 1555 1558 1561 1563 1564 1565 1567
1437 1437 1435 1434 1433 1434 1436 1438 1438 1437 1440 1438 1440 1445 1450 1451 1453 1459 1466 1476 1483 1486 1498 1508 1511 1514 1518 1522 1525 1528 1533 1537 1540 1543 1544 1549 1552 1555 1558 1560 1562 1563 1564
1428 1427 1425 1423 1422 1421 1422 1424 1425 1424 1427 1425 1424 1427 1431 1434 1445 1449 1454 1461 1477 1477 1487 1495 1502 1506 1508 1514 1518 1522 1528 1533 1535 1538 1541 1543 1547 1550 1554 1557 1559 1560 1562
1418 1416 1414 1412 1410 1408 1409 1410 1410 1410 1414 1416 1419 1423 1427 1431 1434 1439 1447 1448 1456 1465 1475 1485 1493 1498 1503 1506 1512 1516 1521 1527 1530 1532 1536 1540 1543 1546 1549 1553 1556 1557 1560
1409 1405 1401 1399 1397 1395 1395 1396 1394 1394 1396 1396 1400 1405 1409 1409 1413 1425 1431 1438 1447 1447 1463 1471 1479 1487 1494 1499 1505 1509 1514 1520 1525 1527 1529 1534 1539 1543 1545 1549 1552 1554 1556
1399 1394 1389 1385 1383 1382 1382 1381 1380 1381 1382 1385 1388 1393 1393 1404 1408 1408 1418 1426 1436 1442 1449 1462 1469 1480 1486 1489 1496 1501 1508 1514 1518 1520 1523 1528 1533 1537 1540 1543 1547 1549 1551
1388 1382 1377 1372 1369 1367 1367 1366 1365 1366 1365 1365 1373 1385 1381 1392 1393 1397 1404 1412 1424 1431 1439 1449 1459 1470 1476 1481 1487 1492 1500 1506 1510 1514 1517 1522 1527 1531 1534 1537 1541 1545 1547
1378 1372 1367 1361 1356 1352 1350 1348 1348 1349 1352 1352 1351 1349 1353 1364 1375 1382 1390 1399 1412 1422 1433 1441 1449 1460 1467 1473 1479 1486 1491 1498 1502 1507 1512 1515 1520 1524 1528 1531 1535 1539 1542
1371 1364 1358 1351 1345 1339 1334 1332 1332 1332 1335 1341 1349 1354 1358 1364 1370 1365 1376 1389 1402 1412 1423 1433 1441 1450 1457 1464 1471 1476 1483 1488 1493 1498 1505 1508 1513 1516 1521 1525 1529 1532 1536
1366 1358 1349 1341 1333 1326 1321 1317 1316 1315 1315 1325 1331 1334 1341 1351 1353 1357 1366 1379 1391 1401 1412 1423 1431 1441 1446 1453 1460 1468 1474 1481 1485 1489 1495 1499 1505 1509 1512 1517 1520 1524 1528
1361 1352 1343 1334 1325 1315 1309 1304 1303 1302 1300 1297 1308 1315 1324 1328 1334 1348 1360 1370 1378 1388 1401 1411 1420 1427 1435 1444 1453 1458 1466 1472 1477 1480 1485 1490 1496 1498 1501 1505 1510 1514 1519
1358 1348 1339 1331 1320 1308 1299 1288 1287 1289 1296 1292 1298 1307 1324 1326 1323 1338 1351 1362 1374 1383 1389 1400 1409 1417 1426 1434 1445 1450 1456 1462 1466 1471 1476 1481 1487 1488 1491 1496 1501 1506 1510
1357 1348 1337 1327 1316 1302 1292 1274 1274 1279 1285 1286 1288 1292 1296 1312 1317 1331 1342 1355 1364 1374 1385 1393 1403 1410 1417 1424 1432 1441 1449 1456 1463 1464 1469 1471 1476 1477 1482 1486 1492 1498 1501
1355 1346 1336 1324 1311 1295 1281 1266 1272 1276 1283 1294 1286 1285 1290 1297 1313 1328 1336 1346 1356 1366 1377 1390 1397 1404 1411 1419 1425 1433 1438 1445 1451 1454 1458 1464 1467 1471 1474 1476 1481 1488 1492
1355 1344 1335 1325 1315 1297 1280 1266 1275 1279 1282 1262 1263 1274 1282 1296 1306 1319 1328 1339 1346 1359 1369 1379 1390 1398 1404 1411 1417 1422 1429 1434 1441 1446 1448 1456 1460 1465 1467 1466 1470 1476 1480